STARLINK-4110 (53166 NORAD) Tracking and Keplerian Element Data

This shows tracking and keplerian element data for the satellite.

Feedback or suggestion? Click here.




ElementValue
Catalog53166
NameSTARLINK-4110
Epoch Orbit1185
Epoch Day270.25001157
Epoch Year2022
RAAN58.1168
Inclination53.2174
Eccentricity0.0001468
Argument of Perigee59.3567
Mean Anonmoly79.8765
Mean Motion15.20312371
Decay Rate-0.01061515
L11 53166U 22083AL 22270.25001157 -.01061515 00000+0 -52683-1 0 9995
L22 53166 53.2174 58.1168 0001468 59.3567 79.8765 15.20312371 11850

Live tracking and technical data element details for STARLINK-4110 (NORAD 53166). STARLINK-4110 can be tracked NOW for your location showing map with azimuth and elevation plus other details from your city location.

Track the satellite on the map from your city or location and see movement details for azimuth, elevation, latitude, longitude, range, height, and movement on the map or in text.







IsCatalogInMostPopularTable: catalog: 53166, numindb: 2
Update: records affected: 1



GetName: 53166 STARLINK-4110

Hit Count: updated at: Thu, 29 Sep 2022 10:40:22 GMT